| time (UTC) | temp F | wind direction | speed knots | gust knots | rain 1hr in | rain 24hr in | rain mn in | humidity % | barometer mb |
| 20260506214908 | 60 | 179 | 7.0 | 11.3 | 0.00 | 0.39 | 0.39 | 76 | 1011.9 |
| 20260506214405 | 60 | 180 | 5.2 | 9.6 | 0.00 | 0.39 | 0.39 | 78 | 1012.1 |
| 20260506213903 | 60 | 158 | 4.3 | 7.8 | 0.00 | 0.39 | 0.39 | 80 | 1012.1 |
| 20260506213400 | 60 | 111 | 5.2 | 7.8 | 0.00 | 0.39 | 0.39 | 79 | 1011.9 |
| 20260506212857 | 60 | 212 | 7.8 | 9.6 | 0.00 | 0.39 | 0.39 | 80 | 1012.1 |
| 20260506212353 | 60 | 208 | 7.0 | 8.7 | 0.00 | 0.39 | 0.39 | 80 | 1011.7 |
| 20260506211848 | 60 | 163 | 4.3 | 6.1 | 0.00 | 0.39 | 0.39 | 80 | 1011.9 |
| 20260506211344 | 60 | 197 | 4.3 | 5.2 | 0.00 | 0.39 | 0.39 | 81 | 1011.8 |
| 20260506210842 | 59 | 130 | 5.2 | 7.0 | 0.00 | 0.39 | 0.39 | 81 | 1011.9 |
| 20260506210338 | 59 | 121 | 7.8 | 9.6 | 0.00 | 0.39 | 0.39 | 82 | 1011.7 |
| 20260506205836 | 59 | 135 | 4.3 | 6.1 | 0.00 | 0.39 | 0.39 | 82 | 1011.7 |
| 20260506205331 | 59 | 188 | 4.3 | 9.6 | 0.00 | 0.39 | 0.39 | 82 | 1011.7 |
| 20260506204828 | 59 | 189 | 6.1 | 8.7 | 0.00 | 0.39 | 0.39 | 83 | 1011.8 |
| 20260506204326 | 59 | 185 | 5.2 | 12.2 | 0.00 | 0.39 | 0.39 | 82 | 1011.5 |
| 20260506203823 | 59 | 127 | 6.1 | 9.6 | 0.00 | 0.39 | 0.39 | 82 | 1011.6 |
| 20260506203320 | 59 | 170 | 7.0 | 12.2 | 0.00 | 0.39 | 0.39 | 83 | 1011.7 |
| 20260506202817 | 60 | 197 | 9.6 | 12.2 | 0.00 | 0.39 | 0.39 | 82 | 1011.7 |
| 20260506202314 | 59 | 193 | 9.6 | 11.3 | 0.00 | 0.39 | 0.39 | 82 | 1011.6 |
| 20260506201810 | 60 | 76 | 3.5 | 3.5 | 0.00 | 0.39 | 0.39 | 83 | 1011.7 |
| 20260506201308 | 60 | 151 | 6.1 | 9.6 | 0.00 | 0.39 | 0.39 | 82 | 1011.5 |
| 20260506200805 | 60 | 135 | 7.8 | 13.9 | 0.00 | 0.39 | 0.39 | 82 | 1011.4 |
| 20260506200301 | 60 | 175 | 4.3 | 7.0 | 0.00 | 0.39 | 0.39 | 82 | 1011.3 |
| 20260506195757 | 60 | 160 | 7.8 | 13.9 | 0.00 | 0.39 | 0.39 | 82 | 1011.6 |
| 20260506195254 | 60 | 154 | 5.2 | 8.7 | 0.00 | 0.39 | 0.39 | 83 | 1011.4 |
| 20260506194751 | 60 | 181 | 7.8 | 9.6 | 0.00 | 0.39 | 0.39 | 83 | 1011.1 |
| 20260506194247 | 60 | 71 | 5.2 | 7.0 | 0.00 | 0.39 | 0.39 | 83 | 1011.3 |
| 20260506193746 | 60 | 187 | 5.2 | 7.0 | 0.00 | 0.39 | 0.39 | 84 | 1011.2 |
| 20260506193242 | 60 | 203 | 5.2 | 7.8 | 0.00 | 0.39 | 0.39 | 84 | 1011.1 |
| 20260506192738 | 60 | 171 | 7.0 | 12.2 | 0.00 | 0.39 | 0.39 | 84 | 1011.2 |
| 20260506192235 | 60 | 72 | 8.7 | 13.0 | 0.00 | 0.39 | 0.39 | 85 | 1011.2 |
| 20260506191732 | 60 | 153 | 7.0 | 8.7 | 0.00 | 0.39 | 0.39 | 85 | 1011.1 |
| 20260506191228 | 60 | 162 | 5.2 | 7.8 | 0.00 | 0.39 | 0.39 | 85 | 1011.3 |
| 20260506190726 | 60 | 211 | 4.3 | 6.1 | 0.00 | 0.39 | 0.39 | 86 | 1011.1 |
| 20260506190222 | 60 | 144 | 5.2 | 7.0 | 0.00 | 0.39 | 0.39 | 85 | 1010.9 |
| 20260506185719 | 61 | 199 | 6.1 | 9.6 | 0.00 | 0.39 | 0.39 | 86 | 1010.8 |
| 20260506185215 | 61 | 234 | 6.1 | 8.7 | 0.00 | 0.39 | 0.39 | 85 | 1010.8 |
| 20260506184713 | 61 | 170 | 9.6 | 14.8 | 0.00 | 0.39 | 0.39 | 85 | 1010.7 |
| 20260506184210 | 60 | 104 | 5.2 | 7.0 | 0.00 | 0.39 | 0.39 | 86 | 1010.6 |
| 20260506183707 | 60 | 206 | 5.2 | 7.0 | 0.00 | 0.39 | 0.39 | 87 | 1010.8 |
| 20260506183203 | 60 | 107 | 9.6 | 13.9 | 0.00 | 0.39 | 0.39 | 87 | 1010.9 |
| 20260506182700 | 60 | 109 | 6.1 | 8.7 | 0.00 | 0.39 | 0.39 | 87 | 1010.8 |
| 20260506182157 | 60 | 180 | 7.8 | 8.7 | 0.00 | 0.39 | 0.39 | 87 | 1010.6 |
| 20260506181655 | 60 | 175 | 6.1 | 14.8 | 0.00 | 0.39 | 0.39 | 87 | 1010.5 |
| 20260506181152 | 60 | 158 | 6.1 | 9.6 | 0.00 | 0.39 | 0.39 | 88 | 1010.5 |
| 20260506180649 | 60 | 210 | 7.8 | 7.8 | 0.00 | 0.39 | 0.39 | 88 | 1010.4 |
| 20260506180145 | 60 | 153 | 5.2 | 7.8 | 0.00 | 0.39 | 0.39 | 89 | 1010.5 |
| 20260506175642 | 61 | 134 | 3.5 | 7.8 | 0.00 | 0.39 | 0.39 | 89 | 1010.4 |
| 20260506175139 | 60 | 115 | 4.3 | 7.0 | 0.00 | 0.39 | 0.39 | 89 | 1010.4 |
| 20260506174637 | 60 | 175 | 7.0 | 12.2 | 0.00 | 0.39 | 0.39 | 89 | 1010.6 |
| 20260506174134 | 60 | 158 | 7.8 | 9.6 | 0.00 | 0.39 | 0.39 | 89 | 1010.3 |
| 20260506173631 | 61 | 105 | 6.1 | 9.6 | 0.00 | 0.39 | 0.39 | 89 | 1010.6 |
| 20260506173128 | 61 | 148 | 5.2 | 7.8 | 0.00 | 0.39 | 0.39 | 89 | 1010.5 |
| 20260506172625 | 61 | 127 | 7.0 | 8.7 | 0.00 | 0.39 | 0.39 | 90 | 1010.8 |
| 20260506172121 | 60 | 157 | 6.1 | 9.6 | 0.00 | 0.39 | 0.39 | 90 | 1010.9 |
| 20260506171619 | 60 | 146 | 4.3 | 6.1 | 0.00 | 0.39 | 0.39 | 91 | 1010.8 |
| 20260506171117 | 60 | 118 | 7.8 | 13.9 | 0.00 | 0.39 | 0.39 | 91 | 1010.8 |
| 20260506170615 | 60 | 255 | 5.2 | 7.0 | 0.00 | 0.39 | 0.39 | 91 | 1010.6 |
| 20260506170111 | 60 | 156 | 4.3 | 7.8 | 0.00 | 0.39 | 0.39 | 91 | 1010.6 |
| 20260506165609 | 60 | 232 | 7.0 | 9.6 | 0.00 | 0.39 | 0.39 | 92 | 1010.7 |
| 20260506165105 | 60 | 179 | 4.3 | 7.0 | 0.00 | 0.39 | 0.39 | 92 | 1010.8 |
| 20260506164603 | 60 | 154 | 4.3 | 5.2 | 0.00 | 0.39 | 0.39 | 92 | 1010.6 |
| 20260506164100 | 60 | 235 | 3.5 | 3.5 | 0.00 | 0.39 | 0.39 | 91 | 1010.9 |
| 20260506163555 | 60 | 151 | 1.7 | 2.6 | 0.00 | 0.39 | 0.39 | 91 | 1011.1 |
| 20260506163051 | 60 | 221 | 4.3 | 6.1 | 0.00 | 0.39 | 0.39 | 91 | 1010.9 |
| 20260506162548 | 60 | 167 | 4.3 | 7.0 | 0.00 | 0.39 | 0.39 | 91 | 1010.7 |
| 20260506162045 | 61 | 94 | 5.2 | 11.3 | 0.00 | 0.39 | 0.39 | 92 | 1010.9 |
| 20260506161543 | 61 | 240 | 3.5 | 3.5 | 0.00 | 0.39 | 0.39 | 91 | 1010.8 |
| 20260506161039 | 61 | 144 | 1.7 | 3.5 | 0.00 | 0.39 | 0.39 | 91 | 1010.9 |
| 20260506160537 | 61 | 164 | 5.2 | 7.0 | 0.00 | 0.39 | 0.39 | 91 | 1011.1 |
| 20260506160034 | 61 | 178 | 7.0 | 9.6 | 0.00 | 0.39 | 0.39 | 90 | 1010.9 |
| 20260506155532 | 61 | 206 | 4.3 | 5.2 | 0.00 | 0.39 | 0.39 | 90 | 1011.0 |
| 20260506153703 | 61 | 182 | 3.5 | 5.2 | 0.00 | 0.39 | 0.39 | 90 | 1011.1 |
| 20260506153201 | 62 | 137 | 5.2 | 7.8 | 0.00 | 0.39 | 0.39 | 90 | 1011.0 |
| 20260506152657 | 61 | 218 | 2.6 | 3.5 | 0.00 | 0.39 | 0.39 | 90 | 1011.2 |
| 20260506152155 | 61 | 141 | 4.3 | 7.0 | 0.00 | 0.39 | 0.39 | 91 | 1011.3 |
| 20260506151654 | 61 | 176 | 5.2 | 7.8 | 0.00 | 0.39 | 0.39 | 91 | 1011.4 |
| 20260506151150 | 61 | 107 | 3.5 | 5.2 | 0.00 | 0.39 | 0.39 | 90 | 1011.2 |
| 20260506150647 | 61 | 142 | 3.5 | 5.2 | 0.00 | 0.39 | 0.39 | 90 | 1011.3 |
| 20260506150144 | 61 | 190 | 7.0 | 8.7 | 0.00 | 0.39 | 0.39 | 90 | 1011.3 |
| 20260506145640 | 61 | 198 | 6.1 | 8.7 | 0.00 | 0.39 | 0.39 | 91 | 1011.3 |
| 20260506145137 | 61 | 132 | 5.2 | 9.6 | 0.00 | 0.39 | 0.39 | 91 | 1011.3 |
| 20260506144635 | 61 | 228 | 12.2 | 14.8 | 0.00 | 0.39 | 0.39 | 91 | 1011.2 |
| 20260506144131 | 61 | 30 | 5.2 | 7.8 | 0.00 | 0.39 | 0.39 | 92 | 1011.4 |
| 20260506143629 | 60 | 180 | 7.0 | 9.6 | 0.00 | 0.39 | 0.39 | 93 | 1011.2 |
| 20260506143127 | 60 | 149 | 2.6 | 3.5 | 0.00 | 0.39 | 0.39 | 94 | 1011.4 |
| 20260506142625 | 60 | 95 | 3.5 | 7.8 | 0.00 | 0.39 | 0.39 | 94 | 1011.4 |
| 20260506142123 | 60 | 133 | 5.2 | 6.1 | 0.00 | 0.39 | 0.39 | 94 | 1011.4 |
| 20260506141620 | 60 | 118 | 3.5 | 6.1 | 0.00 | 0.39 | 0.39 | 95 | 1011.6 |
| 20260506141119 | 60 | 158 | 7.0 | 11.3 | 0.00 | 0.39 | 0.39 | 95 | 1011.5 |
| 20260506140616 | 60 | 127 | 5.2 | 7.8 | 0.00 | 0.39 | 0.39 | 96 | 1011.8 |
| 20260506140113 | 60 | 164 | 7.0 | 8.7 | 0.00 | 0.39 | 0.39 | 96 | 1011.6 |
| 20260506135610 | 60 | 153 | 3.5 | 5.2 | 0.00 | 0.39 | 0.39 | 96 | 1011.6 |
| 20260506135106 | 60 | 238 | 2.6 | 6.1 | 0.00 | 0.39 | 0.39 | 96 | 1011.8 |
| 20260506134602 | 60 | 131 | 2.6 | 5.2 | 0.00 | 0.39 | 0.39 | 96 | 1011.6 |
| 20260506134058 | 59 | 217 | 3.5 | 5.2 | 0.00 | 0.39 | 0.39 | 96 | 1011.7 |
| 20260506133555 | 59 | 105 | 4.3 | 6.1 | 0.00 | 0.39 | 0.39 | 96 | 1011.8 |
| 20260506133053 | 59 | 189 | 3.5 | 5.2 | 0.00 | 0.39 | 0.39 | 97 | 1011.8 |
| 20260506132550 | 59 | 140 | 4.3 | 5.2 | 0.00 | 0.39 | 0.39 | 97 | 1012.1 |
| 20260506132047 | 59 | 150 | 4.3 | 6.1 | 0.00 | 0.39 | 0.39 | 96 | 1012.2 |
| 20260506131544 | 59 | 188 | 4.3 | 6.1 | 0.00 | 0.39 | 0.39 | 97 | 1012.2 |
| 20260506131040 | 59 | 167 | 3.5 | 6.1 | 0.00 | 0.39 | 0.39 | 97 | 1012.4 |
| 20260506130537 | 60 | 177 | 4.3 | 5.2 | 0.00 | 0.39 | 0.39 | 97 | 1012.1 |
| 20260506130035 | 60 | 231 | 5.2 | 6.1 | 0.00 | 0.39 | 0.39 | 97 | 1012.1 |
| 20260506125533 | 60 | 135 | 1.7 | 2.6 | 0.00 | 0.39 | 0.39 | 97 | 1012.2 |
| 20260506125031 | 59 | 182 | 1.7 | 1.7 | 0.00 | 0.39 | 0.39 | 97 | 1012.2 |
| 20260506124528 | 59 | 178 | 2.6 | 6.1 | 0.00 | 0.39 | 0.39 | 97 | 1012.1 |
| 20260506124026 | 59 | 159 | 6.1 | 8.7 | 0.00 | 0.39 | 0.39 | 97 | 1012.5 |
| 20260506123523 | 59 | 244 | 1.7 | 1.7 | 0.00 | 0.39 | 0.39 | 97 | 1012.1 |
| 20260506123021 | 59 | 130 | 1.7 | 2.6 | 0.00 | 0.39 | 0.39 | 97 | 1012.3 |
| 20260506122518 | 59 | 186 | 2.6 | 3.5 | 0.00 | 0.39 | 0.39 | 97 | 1012.2 |
| 20260506122016 | 59 | 165 | 1.7 | 5.2 | 0.00 | 0.39 | 0.39 | 96 | 1012.1 |
| 20260506121513 | 59 | 247 | 1.7 | 2.6 | 0.00 | 0.39 | 0.39 | 96 | 1012.2 |
| 20260506121009 | 59 | 214 | 3.5 | 7.0 | 0.00 | 0.39 | 0.39 | 96 | 1012.2 |
| 20260506120508 | 59 | 236 | 2.6 | 2.6 | 0.00 | 0.39 | 0.39 | 96 | 1012.3 |
| 20260506120005 | 58 | 151 | 2.6 | 2.6 | 0.00 | 0.39 | 0.39 | 97 | 1012.2 |
| 20260506115502 | 58 | 255 | 0.0 | 0.0 | 0.00 | 0.39 | 0.39 | 96 | 1012.4 |
| 20260506115000 | 58 | 258 | 0.0 | 0.0 | 0.00 | 0.39 | 0.39 | 96 | 1012.4 |
| 20260506114457 | 58 | 148 | 2.6 | 3.5 | 0.00 | 0.39 | 0.39 | 96 | 1012.2 |
| 20260506113956 | 58 | 177 | 0.9 | 0.9 | 0.00 | 0.39 | 0.39 | 96 | 1012.4 |
| 20260506113453 | 58 | 163 | 1.7 | 2.6 | 0.00 | 0.39 | 0.39 | 96 | 1012.3 |
| 20260506112950 | 57 | 204 | 2.6 | 2.6 | 0.00 | 0.39 | 0.39 | 96 | 1012.3 |
| 20260506112447 | 57 | 238 | 1.7 | 2.6 | 0.00 | 0.39 | 0.39 | 96 | 1012.4 |
| 20260506111944 | 57 | 200 | 0.0 | 0.9 | 0.00 | 0.39 | 0.39 | 96 | 1012.4 |
| 20260506111443 | 57 | 259 | 0.0 | 0.0 | 0.00 | 0.39 | 0.39 | 96 | 1012.7 |
| 20260506110939 | 56 | 259 | 0.0 | 0.0 | 0.00 | 0.39 | 0.39 | 96 | 1012.6 |
| 20260506110437 | 56 | 251 | 0.0 | 0.0 | 0.00 | 0.39 | 0.39 | 96 | 1012.7 |
| 20260506105933 | 56 | 258 | 0.0 | 0.0 | 0.00 | 0.39 | 0.39 | 96 | 1012.7 |
| 20260506105430 | 56 | 146 | 0.0 | 0.0 | 0.00 | 0.39 | 0.39 | 96 | 1012.8 |
| 20260506104927 | 56 | 114 | 0.9 | 1.7 | 0.00 | 0.39 | 0.39 | 95 | 1012.6 |
| 20260506104425 | 56 | 78 | 0.9 | 1.7 | 0.00 | 0.39 | 0.39 | 95 | 1012.7 |
| 20260506103923 | 56 | 241 | 0.0 | 0.0 | 0.00 | 0.39 | 0.39 | 95 | 1012.7 |
| 20260506103420 | 56 | 133 | 0.0 | 0.9 | 0.00 | 0.39 | 0.39 | 95 | 1012.9 |
| 20260506102917 | 56 | 151 | 2.6 | 2.6 | 0.00 | 0.39 | 0.39 | 95 | 1012.9 |
| 20260506102415 | 56 | 110 | 2.6 | 3.5 | 0.00 | 0.39 | 0.39 | 95 | 1012.7 |
| 20260506101912 | 56 | 101 | 2.6 | 5.2 | 0.00 | 0.39 | 0.39 | 95 | 1012.9 |
| 20260506101408 | 56 | 130 | 2.6 | 3.5 | 0.00 | 0.39 | 0.39 | 95 | 1013.0 |
| 20260506100906 | 56 | 130 | 1.7 | 2.6 | 0.00 | 0.39 | 0.39 | 95 | 1012.9 |
| 20260506100404 | 56 | 174 | 4.3 | 7.0 | 0.05 | 0.39 | 0.39 | 95 | 1013.0 |
| 20260506095902 | 56 | 168 | 4.3 | 5.2 | 0.05 | 0.39 | 0.39 | 95 | 1012.9 |
| 20260506095400 | 56 | 112 | 2.6 | 3.5 | 0.00 | 0.38 | 0.38 | 95 | 1012.9 |
| 20260506094856 | 56 | 203 | 0.9 | 1.7 | 0.00 | 0.38 | 0.38 | 95 | 1012.8 |
| 20260506094355 | 55 | 125 | 2.6 | 5.2 | 0.00 | 0.38 | 0.38 | 96 | 1012.9 |
| 20260506093852 | 55 | 139 | 3.5 | 3.5 | 0.07 | 0.38 | 0.38 | 95 | 1012.8 |
| 20260506093350 | 55 | 109 | 0.9 | 1.7 | 0.07 | 0.38 | 0.38 | 95 | 1012.9 |
| 20260506092847 | 55 | 199 | 1.7 | 1.7 | 0.05 | 0.37 | 0.37 | 95 | 1013.0 |
| 20260506092345 | 55 | 109 | 2.6 | 3.5 | 0.05 | 0.37 | 0.37 | 95 | 1013.1 |
| 20260506091841 | 55 | 167 | 1.7 | 2.6 | 0.07 | 0.36 | 0.36 | 95 | 1013.1 |
| 20260506091339 | 55 | 120 | 1.7 | 3.5 | 0.19 | 0.36 | 0.36 | 95 | 1012.9 |
| 20260506090836 | 55 | 112 | 1.7 | 1.7 | 0.12 | 0.35 | 0.35 | 95 | 1013.2 |
| 20260506090334 | 56 | 110 | 3.5 | 3.5 | 0.12 | 0.33 | 0.33 | 95 | 1013.0 |
| 20260506085830 | 56 | 113 | 2.6 | 3.5 | 0.19 | 0.33 | 0.33 | 95 | 1013.0 |
| 20260506085326 | 56 | 114 | 3.5 | 3.5 | 0.19 | 0.32 | 0.32 | 95 | 1013.1 |
| 20260506084823 | 55 | 178 | 3.5 | 5.2 | 0.05 | 0.30 | 0.30 | 95 | 1013.3 |
| 20260506084320 | 55 | 155 | 2.6 | 5.2 | 0.12 | 0.29 | 0.29 | 94 | 1013.0 |
| 20260506083817 | 55 | 148 | 2.6 | 3.5 | 0.12 | 0.29 | 0.29 | 94 | 1013.1 |
| 20260506083314 | 55 | 181 | 2.6 | 3.5 | 0.07 | 0.27 | 0.27 | 94 | 1013.1 |
| 20260506082812 | 55 | 169 | 2.6 | 5.2 | 0.12 | 0.27 | 0.27 | 94 | 1012.9 |
| 20260506082308 | 55 | 148 | 4.3 | 6.1 | 0.17 | 0.26 | 0.26 | 94 | 1013.0 |
| 20260506081805 | 55 | 161 | 3.5 | 5.2 | 0.19 | 0.25 | 0.25 | 93 | 1013.0 |
| 20260506081302 | 55 | 116 | 4.3 | 7.0 | 0.24 | 0.23 | 0.23 | 94 | 1013.0 |
| 20260506080800 | 55 | 220 | 0.9 | 1.7 | 0.24 | 0.22 | 0.22 | 93 | 1013.0 |
| 20260506080256 | 55 | 182 | 0.9 | 1.7 | 0.19 | 0.19 | 0.19 | 93 | 1013.3 |
| 20260506073240 | 56 | 286 | 0.9 | 1.7 | 0.24 | 0.12 | 0.12 | 92 | 1013.3 |
| 20260506072737 | 56 | 138 | 0.0 | 0.9 | 0.00 | 0.08 | 0.08 | 92 | 1013.1 |
| 20260506072234 | 56 | 156 | 0.9 | 1.7 | 0.00 | 0.08 | 0.08 | 91 | 1012.7 |
| 20260506071732 | 56 | 149 | 4.3 | 6.1 | 0.00 | 0.08 | 0.08 | 90 | 1012.7 |
| 20260506071230 | 56 | 198 | 0.9 | 1.7 | 0.00 | 0.08 | 0.08 | 90 | 1012.7 |
| 20260506070727 | 56 | 135 | 1.7 | 1.7 | 0.00 | 0.08 | 0.08 | 90 | 1012.5 |
| 20260506070223 | 56 | 170 | 1.7 | 2.6 | 0.07 | 0.08 | 0.08 | 90 | 1013.0 |
| 20260506062200 | 58 | 114 | 3.5 | 7.0 | 0.00 | 0.00 | 0.00 | 82 | 1012.8 |
| 20260506061656 | 58 | 169 | 1.7 | 1.7 | 0.00 | 0.00 | 0.00 | 84 | 1012.7 |
| 20260506061154 | 58 | 127 | 1.7 | 2.6 | 0.00 | 0.00 | 0.00 | 84 | 1012.5 |
| 20260506060652 | 58 | 175 | 1.7 | 2.6 | 0.00 | 0.00 | 0.00 | 85 | 1012.3 |
| 20260506060149 | 59 | 127 | 2.6 | 5.2 | 0.00 | 0.00 | 0.00 | 84 | 1012.5 |
| 20260506051121 | 59 | 194 | 3.5 | 5.2 | 0.00 | 0.00 | 0.00 | 80 | 1012.4 |
| 20260506050619 | 59 | 166 | 3.5 | 5.2 | 0.00 | 0.00 | 0.00 | 80 | 1012.5 |
| 20260506050116 | 59 | 173 | 1.7 | 1.7 | 0.00 | 0.00 | 0.00 | 82 | 1012.3 |
| 20260506045109 | 58 | 203 | 2.6 | 5.2 | 0.00 | 0.00 | 0.00 | 83 | 1012.2 |
| 20260506044607 | 58 | 190 | 1.7 | 2.6 | 0.00 | 0.00 | 0.00 | 84 | 1012.2 |
| 20260506044104 | 58 | 179 | 3.5 | 5.2 | 0.00 | 0.00 | 0.00 | 85 | 1012.2 |
| 20260506043601 | 58 | 153 | 2.6 | 3.5 | 0.00 | 0.00 | 0.00 | 85 | 1012.4 |
| 20260506043059 | 58 | 133 | 1.7 | 3.5 | 0.00 | 0.00 | 0.00 | 85 | 1012.4 |
| 20260506042558 | 58 | 63 | 2.6 | 3.5 | 0.00 | 0.00 | 0.00 | 86 | 1012.3 |
| 20260506042055 | 58 | 171 | 2.6 | 3.5 | 0.00 | 0.00 | 0.00 | 86 | 1012.3 |
| 20260506041554 | 58 | 178 | 3.5 | 5.2 | 0.00 | 0.00 | 0.00 | 86 | 1012.1 |
| 20260506041050 | 58 | 154 | 2.6 | 5.2 | 0.00 | 0.00 | 0.00 | 86 | 1012.2 |
| 20260506040548 | 58 | 113 | 3.5 | 3.5 | 0.00 | 0.00 | 0.00 | 86 | 1012.1 |
| 20260506040044 | 58 | 201 | 3.5 | 5.2 | 0.00 | 0.00 | 0.00 | 86 | 1012.1 |
| 20260506035541 | 59 | 158 | 5.2 | 7.0 | 0.00 | 0.00 | 0.00 | 86 | 1011.9 |
| 20260506035038 | 58 | 113 | 3.5 | 7.8 | 0.00 | 0.00 | 0.00 | 87 | 1012.1 |
| 20260506034535 | 58 | 123 | 3.5 | 5.2 | 0.00 | 0.00 | 0.00 | 87 | 1012.3 |
| 20260506034032 | 59 | 134 | 2.6 | 5.2 | 0.00 | 0.00 | 0.00 | 88 | 1012.4 |
| 20260506033530 | 58 | 190 | 3.5 | 5.2 | 0.00 | 0.00 | 0.00 | 88 | 1012.2 |
| 20260506033026 | 58 | 135 | 5.2 | 6.1 | 0.00 | 0.00 | 0.00 | 88 | 1012.3 |
| 20260506032524 | 58 | 141 | 2.6 | 5.2 | 0.00 | 0.00 | 0.00 | 88 | 1012.2 |
| 20260506032020 | 59 | 169 | 2.6 | 2.6 | 0.00 | 0.00 | 0.00 | 89 | 1012.3 |
| 20260506031518 | 59 | 154 | 5.2 | 6.1 | 0.00 | 0.00 | 0.00 | 88 | 1012.3 |
| 20260506031015 | 59 | 146 | 5.2 | 6.1 | 0.00 | 0.00 | 0.00 | 88 | 1012.4 |
| 20260506030513 | 59 | 142 | 4.3 | 6.1 | 0.00 | 0.00 | 0.00 | 88 | 1012.4 |
| 20260506030010 | 59 | 171 | 0.9 | 0.9 | 0.00 | 0.00 | 0.00 | 88 | 1012.4 |
| 20260506025507 | 59 | 176 | 1.7 | 1.7 | 0.00 | 0.00 | 0.00 | 88 | 1012.6 |
| 20260506025003 | 59 | 151 | 1.7 | 2.6 | 0.00 | 0.00 | 0.00 | 88 | 1012.6 |
| 20260506024500 | 59 | 151 | 2.6 | 2.6 | 0.00 | 0.00 | 0.00 | 88 | 1012.7 |
| 20260506023955 | 59 | 140 | 2.6 | 2.6 | 0.00 | 0.00 | 0.00 | 88 | 1012.8 |
| 20260506023453 | 59 | 169 | 1.7 | 2.6 | 0.00 | 0.00 | 0.00 | 88 | 1012.9 |
| 20260506022949 | 59 | 225 | 1.7 | 1.7 | 0.00 | 0.00 | 0.00 | 87 | 1012.9 |
| 20260506022447 | 59 | 159 | 5.2 | 7.0 | 0.00 | 0.00 | 0.00 | 87 | 1012.8 |
| 20260506021945 | 59 | 241 | 2.6 | 2.6 | 0.00 | 0.00 | 0.00 | 87 | 1013.0 |
| 20260506021442 | 59 | 203 | 2.6 | 3.5 | 0.00 | 0.00 | 0.00 | 86 | 1013.0 |
| 20260506020939 | 59 | 281 | 1.7 | 3.5 | 0.00 | 0.00 | 0.00 | 86 | 1013.0 |
| 20260506020437 | 59 | 204 | 3.5 | 5.2 | 0.00 | 0.00 | 0.00 | 86 | 1012.8 |
| 20260506015934 | 59 | 119 | 2.6 | 3.5 | 0.00 | 0.00 | 0.00 | 86 | 1012.8 |
| 20260506015431 | 59 | 149 | 3.5 | 6.1 | 0.00 | 0.00 | 0.00 | 86 | 1013.0 |
| 20260506014928 | 59 | 163 | 1.7 | 2.6 | 0.00 | 0.00 | 0.00 | 87 | 1012.8 |
| 20260506014425 | 59 | 141 | 3.5 | 5.2 | 0.00 | 0.00 | 0.00 | 87 | 1013.1 |
| 20260506013921 | 59 | 132 | 0.9 | 2.6 | 0.00 | 0.00 | 0.00 | 86 | 1012.9 |
| 20260506013420 | 59 | 117 | 2.6 | 3.5 | 0.00 | 0.00 | 0.00 | 86 | 1013.1 |
| 20260506012915 | 59 | 232 | 1.7 | 1.7 | 0.00 | 0.00 | 0.00 | 86 | 1012.7 |
| 20260506012412 | 59 | 121 | 1.7 | 2.6 | 0.00 | 0.00 | 0.00 | 86 | 1013.1 |
| 20260506011909 | 59 | 162 | 4.3 | 7.0 | 0.00 | 0.00 | 0.00 | 86 | 1012.8 |
| 20260506011406 | 59 | 179 | 3.5 | 5.2 | 0.00 | 0.00 | 0.00 | 86 | 1012.9 |
| 20260506010903 | 59 | 182 | 2.6 | 3.5 | 0.00 | 0.00 | 0.00 | 86 | 1012.8 |
| 20260506010402 | 59 | 240 | 0.9 | 1.7 | 0.00 | 0.00 | 0.00 | 86 | 1012.8 |
| 20260506005858 | 59 | 172 | 2.6 | 3.5 | 0.00 | 0.00 | 0.00 | 85 | 1012.8 |
| 20260506005355 | 59 | 230 | 2.6 | 3.5 | 0.00 | 0.00 | 0.00 | 85 | 1012.9 |
| 20260506004850 | 59 | 138 | 3.5 | 5.2 | 0.00 | 0.00 | 0.00 | 85 | 1012.8 |
| 20260506004349 | 59 | 167 | 1.7 | 2.6 | 0.00 | 0.00 | 0.00 | 85 | 1012.9 |
| 20260506003845 | 59 | 193 | 3.5 | 6.1 | 0.00 | 0.00 | 0.00 | 86 | 1012.9 |
| 20260506003341 | 59 | 187 | 1.7 | 2.6 | 0.00 | 0.00 | 0.00 | 86 | 1012.7 |
| 20260506002838 | 59 | 275 | 3.5 | 6.1 | 0.00 | 0.00 | 0.00 | 85 | 1012.7 |
| 20260506002334 | 59 | 176 | 4.3 | 6.1 | 0.00 | 0.00 | 0.00 | 85 | 1013.0 |
| 20260506001829 | 59 | 243 | 1.7 | 3.5 | 0.00 | 0.00 | 0.00 | 85 | 1012.9 |
| 20260506001327 | 59 | 212 | 3.5 | 6.1 | 0.00 | 0.00 | 0.00 | 85 | 1013.0 |
| 20260506000824 | 59 | 167 | 0.9 | 0.9 | 0.00 | 0.00 | 0.00 | 84 | 1013.0 |
| 20260506000323 | 59 | 183 | 1.7 | 2.6 | 0.00 | 0.00 | 0.00 | 84 | 1013.2 |
| 20260505235818 | 60 | 197 | 0.9 | 1.7 | 0.00 | 0.00 | 0.00 | 83 | 1013.1 |
| 20260505235316 | 60 | 155 | 3.5 | 3.5 | 0.00 | 0.00 | 0.00 | 82 | 1013.1 |
| 20260505234812 | 60 | 178 | 0.0 | 0.9 | 0.00 | 0.00 | 0.00 | 81 | 1013.4 |
| 20260505234310 | 60 | 127 | 1.7 | 2.6 | 0.00 | 0.00 | 0.00 | 81 | 1013.3 |
| 20260505233807 | 60 | 218 | 3.5 | 6.1 | 0.00 | 0.00 | 0.00 | 81 | 1013.6 |
| 20260505233305 | 60 | 188 | 2.6 | 3.5 | 0.00 | 0.00 | 0.00 | 81 | 1013.7 |
| 20260505232802 | 60 | 160 | 1.7 | 2.6 | 0.00 | 0.00 | 0.00 | 81 | 1013.7 |
| 20260505232259 | 60 | 204 | 0.9 | 0.9 | 0.00 | 0.00 | 0.00 | 80 | 1013.8 |
| 20260505231755 | 60 | 226 | 3.5 | 5.2 | 0.00 | 0.00 | 0.00 | 80 | 1013.7 |
| 20260505231254 | 60 | 185 | 0.9 | 0.9 | 0.00 | 0.00 | 0.00 | 80 | 1013.7 |
| 20260505230752 | 60 | 220 | 2.6 | 3.5 | 0.00 | 0.00 | 0.00 | 80 | 1013.7 |
| 20260505230249 | 60 | 232 | 0.9 | 0.9 | 0.00 | 0.00 | 0.00 | 80 | 1013.7 |
| 20260505225745 | 60 | 266 | 0.9 | 0.9 | 0.00 | 0.02 | 0.02 | 80 | 1013.7 |
| 20260505225243 | 60 | 167 | 2.6 | 2.6 | 0.00 | 0.02 | 0.02 | 80 | 1013.7 |
| 20260505224737 | 60 | 255 | 2.6 | 3.5 | 0.00 | 0.02 | 0.02 | 79 | 1013.7 |
| 20260505224235 | 60 | 220 | 0.9 | 0.9 | 0.00 | 0.02 | 0.02 | 78 | 1013.8 |
| 20260505223733 | 60 | 159 | 3.5 | 7.0 | 0.00 | 0.02 | 0.02 | 78 | 1013.7 |
| 20260505223229 | 60 | 135 | 1.7 | 2.6 | 0.00 | 0.02 | 0.02 | 77 | 1013.5 |
| 20260505222725 | 60 | 211 | 3.5 | 3.5 | 0.00 | 0.02 | 0.02 | 77 | 1013.4 |
| 20260505222221 | 60 | 188 | 3.5 | 7.0 | 0.00 | 0.02 | 0.02 | 77 | 1013.5 |
| 20260505221719 | 60 | 210 | 5.2 | 7.0 | 0.00 | 0.02 | 0.02 | 77 | 1013.6 |
| 20260505221215 | 60 | 116 | 1.7 | 1.7 | 0.00 | 0.02 | 0.02 | 77 | 1013.8 |
| 20260505220712 | 60 | 194 | 5.2 | 9.6 | 0.00 | 0.02 | 0.02 | 77 | 1013.9 |
| 20260505220210 | 60 | 152 | 3.5 | 3.5 | 0.00 | 0.02 | 0.02 | 77 | 1013.7 |
| 20260505215707 | 60 | 139 | 2.6 | 5.2 | 0.00 | 0.02 | 0.02 | 78 | 1013.9 |
| 20260505215205 | 59 | 226 | 0.9 | 0.9 | 0.00 | 0.02 | 0.02 | 78 | 1014.0 |